Content
SEND FEEDBACK

Daily
Averages
Monthly
Summary
Saudi Arabia

AL MULTASA, SAUDI ARABIA


Home > Middle East > Saudi Arabia
Elevation: 36 feet     Latitude: 24 01N     Longitude: 038 13E

WEATHER
 
SELECT A DAY
Number of Records: 179,753;   Date Range: 7/1/96 - 10/19/14
 
SHARE

PRINT THIS DATA

[ ← Previous Day ]
WEATHER ALMANAC - FEBRUARY 13, 2013
[ Next Day → ]
[ °C ]   °F
Weather ElementAverageHighLow
Temperature73.1 °F86 °F (1:00 pm)59 °F (7:00 am)
Dewpoint51.9 °F57.2 °F (8:00 pm)39.2 °F (1:00 pm)
Humidity48.7 %77 % (8:00 am)12 % (12:00 pm)
Barometer29.85 in29.92 in (11:00 am)29.80 in (3:00 pm)
Wind Speed6.3 mph16.1 mph (5:00 pm)
Weather ElementAverage
Visibility5.8 mi
Wind DirectionSSW (189.3 °)

Weather ElementTotal
Precipitation---
Cooling Degree Days7.5 (Base 65)
Growing Degree Days22.5 (Base 50)
Averaged from 31 records on February 13, 2013
WEATHER CONDITIONS BREAKOUT
WIND DIRECTION BREAKOUT
WEATHER BY HOUR - FEBRUARY 13, 2013
[ °C ]   °F
Local TimeTemperatureDewpointHumidityBarometerVisibilityWind DirectionWind SpeedGust SpeedPrecipitationEventsConditions
12:00 AM68.0 °F55.4 °F64 %29.83 inWest (270°)9.2 mphClear
1:00 AM66.2 °F53.6 °F64 %29.86 inWNW (300°)2.3 mphClear
2:00 AM64.4 °F51.8 °F64 %29.83 inWNW (300°)2.3 mphClear
3:00 AM63.0 °F52.0 °F58 %29.85 in6.0 miWest (280°)2.3 mph
3:00 AM62.6 °F51.8 °F68 %29.83 inWest (280°)2.3 mphClear
4:00 AM60.8 °F50.0 °F68 %29.83 inCalmClear
5:00 AM60.8 °F50.0 °F68 %29.83 inCalmClear
6:00 AM60.8 °F48.2 °F63 %29.83 inCalmClear
6:00 AM61.0 °F48.0 °F53 %29.85 in6.0 miCalm
7:00 AM59.0 °F50.0 °F72 %29.86 in6.2 miCalmPartly Cloudy
8:00 AM60.8 °F53.6 °F77 %29.89 inCalmClear
9:00 AM65.0 °F55.0 °F63 %29.90 in6.0 miCalmScattered Clouds
9:00 AM64.4 °F55.4 °F73 %29.89 inCalmClear
10:00 AM73.4 °F53.6 °F50 %29.89 inCalmClear
11:00 AM78.8 °F50.0 °F36 %29.92 inENE (60°)5.8 mphClear
12:00 PM84.2 °F41.0 °F22 %29.89 inSSE (160°)6.9 mphClear
12:00 PM85.0 °F41.0 °F12 %29.91 in6.0 miSSE (160°)6.9 mphScattered Clouds
1:00 PM86.0 °F39.2 °F19 %29.86 inSSW (200°)9.2 mphClear
2:00 PM86.0 °F51.8 °F31 %29.83 inSSW (210°)11.5 mphClear
3:00 PM85.0 °F54.0 °F24 %29.83 in6.0 miWest (260°)11.5 mphScattered Clouds
3:00 PM86.0 °F53.6 °F33 %29.80 inWest (260°)11.5 mphClear
4:00 PM84.2 °F55.4 °F37 %29.80 inWSW (240°)13.8 mphClear
5:00 PM84.2 °F53.6 °F35 %29.80 inWSW (250°)16.1 mphClear
6:00 PM82.4 °F55.4 °F39 %29.83 inWest (280°)11.5 mphClear
6:00 PM82.0 °F55.0 °F30 %29.83 in6.0 miWest (280°)11.5 mphClear
7:00 PM78.8 °F55.4 °F44 %29.80 in5.0 miWest (280°)11.5 mph
8:00 PM77.0 °F57.2 °F50 %29.83 in5.0 miWest (280°)11.5 mph
9:00 PM75.0 °F55.0 °F40 %29.85 in6.0 miWest (280°)11.5 mphScattered Clouds
9:00 PM75.2 °F55.4 °F50 %29.83 inWest (280°)11.5 mphClear
10:00 PM73.4 °F55.4 °F53 %29.83 inWest (280°)9.2 mphClear
11:00 PM73.4 °F53.6 °F50 %29.83 inWNW (300°)6.9 mphClear
Hourly data recorded from OEYN, located miles away from Al Multasa, Saudi Arabia







STORIES FROM OUR PARTNERS